Showing default

HXMT, 42758

Orbit data source: Space-Track

HXMT, 42758 is a payload satellite owned by CNSA (CN) in LEO that was launched on Thu, 15 Jun 2017 UTC via a CHANG ZHENG 4B launch vehicle from the Jiuquan Satellite Launch Center, China (JSC). Payloads include a variety of satellites, spacecraft, and rockets equipped with specific instruments for various scientific and technological missions. These include communications satellites like Starlink; space stations such as the ISS; scientific satellites like the Hubble; Earth observation satellites from companies like Planet Labs, Umbra, and HawkEye 360; GPS; miniature CubeSats for education and research; and military/defense satellites.

Loading next visibility...
HXMT details
Identifier
42758, 2017-034A
Orbit
LEO
Last TLE update8 hours ago
Origin
Flag of CNCNSA (CN / PRC)
ManufacturerCAST
MissionOperational Civil Astronomy
Bus & MotorZY, Unknown motor
Mass3,000 kg wet, ~2,900 kg dry
Launch date (UTC)
2017-06-15 (8 years ago)
Launch vehicle
CHANG ZHENG 4B
Launch site
Jiuquan Satellite Launch Center, China (JSC)
Object type
Payload
Rocket body
Debris
Shape & HBRBox + 2 Pan, 10 m
Radar Cross Section10.304 m², Large (>1 m²)

Expand to show TLE details & history

TLE from 8 hours ago
0 HXMT
1 42758U 17034A   24361.48396348  .00018205  00000-0  83002-3 0  9994
2 42758  43.0148 286.3882 0012560 268.5403  91.4007 15.20279048416041
Epoch: 2024-12-26T11:36Z
Definitive object data (Epoch: 2024-12-26T11:36:54.444Z)
Latitude-0.00005°
Longitude16.69859°
Altitude504.998 km
Speed7.613 km/s
True Right ascension19h 05m 33s
True Declination0° 00' 00"
Sunlit
Object was in daylight at TLE epoch
Visualization TLE readout
Latitude5.56802°
Longitude20.8199°
Altitude505.315 km
Speed7.613 km/s
Apparent Right ascension20h 27m 17s
Apparent Declination-58° 42' 47"
Sunlit
Object is in daylight
Visualization observer readout
Local Sidereal Time18:54:45
Azimuth168.026° S
Elevation-10.49°
Doppler factor1
Orbital elements
Apogee altitude515.582 km
Perigee altitude498.287 km
Semi-major axis6,885.072 km
Eccentricity0.001256
Inclination43.0148°
RAAN286.3882°
Arg. of periapsis268.5403°
True anomaly91.54458°
Mean anomaly91.4007°
Eccentric anomaly91.47264°
Mean motion3.7991 °/min
BSTAR0.00083002
Orbital period94.76 mins
Loading maneuver chart data...
Loading historical data...
Loading historical data...
Loading historical data...
Loading historical data...
Loading historical data...
Loading historical data...
Loading historical data...

HXMT Visibility forecast

Observer location: undefined°, undefined

Span
Click to sort rows by Start time (UTC) header in descending order
Start Az.
Max El. time (UTC)
Max El. Az.
Max El.
End time (UTC)
End Az.
5 mins2024-12-26 22:53:05.236Z218.041° SW2024-12-26 22:55:05.236Z160.206° S37.026°2024-12-26 22:58:05.236Z82.27° E
6 mins2024-12-27 00:32:05.236Z273.483° WNW2024-12-27 00:35:05.236Z24.662° NE39.794°2024-12-27 00:38:05.236Z70.379° E
6 mins2024-12-27 02:12:05.236Z294.916° NW2024-12-27 02:14:05.236Z345.456° N39.829°2024-12-27 02:18:05.236Z88.275° E
6 mins2024-12-27 03:51:05.236Z279.435° WNW2024-12-27 03:54:05.236Z190.015° SSW39.245°2024-12-27 03:57:05.236Z129.454° SE
|